CAPE
566 1234 1146 1381 1683 1144 962 1038 1070 1071 1112 1337 1541 1538 1779 1732 1688 1666 1505 1314 852 794 967 752 569 446 332 488 442 278 348 324 215 114 159 279 392 416 340 408 700 663 733
740 1128 1312 1582 1587 1520 1114 928 996 1043 1414 1876 1477 1758 1585 1802 1737 1671 1538 1376 1278 1053 838 925 710 632 414 431 238 262 382 706 602 515 482 410 505 585 645 584 312 442 910
1029 1352 1307 1306 1693 1668 1581 1586 1621 1645 1706 1561 1419 1961 1620 1732 1846 1721 1693 1614 1257 1094 1008 849 928 952 661 295 341 592 525 829 893 679 583 344 489 660 746 665 247 223 401
725 647 861 1255 1193 1321 1628 1453 1459 1488 1395 1492 1670 1662 1971 1674 1826 1538 1850 1677 1745 1168 939 873 811 953 909 678 503 616 604 741 544 444 518 597 465 862 1009 881 189 449 741
266 435 1536 1687 1579 1426 1303 1310 1297 1337 1541 1561 1307 1707 1590 1880 1873 1255 1601 1715 1756 1456 1214 921 818 992 662 487 384 474 471 538 355 317 435 521 722 953 1081 1094 852 1160 1095
56 701 1377 1244 952 737 714 835 1134 1671 1535 1465 1405 1261 1785 1546 1568 1580 1255 1644 1560 1533 1272 1270 1216 1227 692 714 690 456 194 90 208 209 234 822 802 884 1102 1182 1113 1106 1168
36 734 998 1001 801 633 604 578 735 1075 1598 1432 1387 1370 1413 1537 1489 1219 1198 1166 1730 1243 1230 1173 1298 1574 1202 830 523 457 158 229 252 271 338 379 865 1301 1279 1148 1289 1185 1282
0 372 819 956 883 823 684 607 515 444 743 1336 1312 1295 1250 1543 1476 1411 1776 1422 1275 1772 1691 1399 1506 1265 1149 960 712 618 581 667 661 433 535 673 1212 1165 893 817 934 1302 1484
107 242 361 556 884 937 889 711 609 470 306 558 1131 1173 1138 1184 1347 1277 1281 1486 1466 1034 1301 1569 1627 1240 1346 816 398 565 688 490 368 357 500 717 1344 998 841 1042 1219 1166 1169
28 89 72 289 582 530 912 1075 917 828 491 184 159 715 1009 1034 990 1176 1200 1161 1284 1512 1257 1658 1226 1262 953 363 285 518 791 232 160 291 378 437 706 915 942 1340 1487 1075 1553
8 0 89 140 288 546 746 1136 1322 1200 1129 783 213 52 296 480 762 797 875 1319 1102 1090 1128 1189 1301 1062 652 415 382 423 763 144 53 158 239 236 591 640 752 1153 917 1136 1405
0 0 0 2 63 396 553 528 916 1028 920 323 460 200 145 267 307 514 709 1014 1073 1134 986 1039 1046 1053 1079 573 391 520 446 345 181 62 11 182 329 938 742 1163 1419 1239 1334
85 94 89 82 269 35 2 170 483 760 534 264 252 220 265 403 399 549 638 783 848 930 836 907 808 802 615 317 57 224 268 387 251 144 135 21 55 565 728 725 1029 1501 1898
146 162 174 153 232 180 160 301 741 777 663 213 8 225 137 296 320 289 454 420 317 357 304 339 365 374 241 203 272 287 271 236 288 243 194 167 55 325 808 814 734 656 1120
65 143 192 291 265 312 355 583 570 677 552 251 171 244 101 196 238 133 178 195 226 142 220 194 282 340 315 384 384 311 218 164 174 255 180 177 234 210 282 588 718 920 955
33 99 207 331 329 405 657 667 732 570 466 328 178 222 5 157 174 292 358 310 403 197 225 131 287 237 238 267 175 188 286 373 353 400 396 201 397 365 247 240 193 488 1106
66 161 275 333 372 386 448 471 475 365 86 265 354 293 134 52 185 1 37 78 241 552 217 346 270 229 210 182 344 363 404 677 535 572 367 179 276 434 377 389 372 617 594
73 154 327 453 342 289 370 483 507 379 281 370 158 84 26 14 23 8 0 24 318 565 345 424 372 452 538 488 438 407 468 630 687 602 401 332 253 298 390 447 619 619 659
145 119 89 603 595 429 309 279 395 342 10 88 321 285 29 18 7 0 18 240 467 578 396 166 488 451 339 261 344 512 506 615 826 835 775 582 498 458 415 709 677 653 529
56 19 0 283 697 654 465 421 487 450 285 7 191 588 269 62 229 266 662 662 790 801 616 469 408 269 392 314 498 692 560 479 554 648 787 647 548 606 554 495 537 838 885
60 1 0 347 381 697 690 575 692 652 673 678 858 830 713 353 78 250 672 672 770 832 816 821 753 533 527 894 889 612 482 559 627 373 362 772 830 628 528 519 594 738 874
0 69 82 230 40 297 849 698 915 851 893 840 794 795 595 505 466 507 733 633 637 599 253 475 756 780 681 660 705 720 454 251 112 502 275 89 372 692 768 630 558 637 761
10 214 375 559 648 777 806 1078 1237 1191 960 683 617 629 276 12 56 138 507 691 839 354 5 233 677 862 689 587 783 604 361 131 223 180 324 443 575 650 549 761 316 914 755
0 26 298 900 1063 1032 1239 1578 1213 1164 1007 726 571 44 13 0 1 238 619 894 783 808 671 696 922 895 878 498 657 743 569 606 328 241 210 416 455 630 198 29 96 146 510
39 102 537 1376 1233 1231 1475 1641 1307 1239 982 329 0 65 191 369 249 575 758 615 838 1233 1272 1035 1156 1215 932 810 691 634 556 529 541 497 349 403 176 220 174 11 1 138 197
347 156 650 1564 1520 1488 1684 1684 1528 1173 1073 721 630 720 1113 824 1147 1174 972 885 1198 1456 1571 1438 1217 1147 1095 1030 1026 892 933 928 661 522 500 447 414 460 314 162 60 77 154
CIN
-3 -0 -1 -0 -0 -0 -1 -0 -1 -4 -0 -0 -0 -0 -0 -0 -0 -0 -0 -0 -0 -0 -0 -11 -0 -0 -0 -17 -8 -8 -2 -0 -0 -6 -14 -8 -4 -6 -3 -0 -0 -0 -0
-11 -1 -1 -0 -0 -0 -0 -4 -0 -4 -0 -0 -0 -0 -0 -0 -0 -0 -0 -0 -0 -0 -0 -0 -31 -42 -3 -0 -9 -7 -7 -1 -0 -0 -0 -3 -0 -0 -0 -0 -10 -2 -0
-4 -0 -1 -1 -0 -0 -0 -0 -0 -0 -0 -0 -2 -0 -0 -0 -0 -0 -0 -0 -0 -0 -0 -0 -0 -24 -22 -15 -7 -50 -5 -3 -2 -32 -5 -14 -1 -0 -0 -0 -38 -47 -23
-45 -31 -13 -1 -2 -0 -0 -0 -0 -0 -0 -0 -0 -0 -0 -0 -0 -0 -0 -0 -0 -0 -11 -10 -2 -1 -0 -2 -5 -0 -31 -40 -2 -4 -7 -2 -8 -0 -0 -0 -43 -17 -1
-104 -67 -0 -0 -0 -0 -0 -0 -0 -0 -0 -0 -0 -0 -0 -0 -0 -15 -0 -0 -0 -0 -0 -5 -6 -4 -12 -9 -15 -16 -20 -6 -21 -36 -23 -16 -3 -0 -0 -0 -0 -0 -0
-161 -49 -0 -3 -16 -24 -24 -17 -1 -0 -0 -0 -0 -0 -0 -0 -0 -0 -13 -0 -0 -0 -1 -2 -5 -2 -16 -4 -11 -15 -43 -50 -34 -44 -42 -9 -14 -1 -0 -0 -0 -0 -0
-197 -58 -23 -24 -34 -40 -34 -34 -27 -3 -0 -0 -0 -0 -0 -0 -0 -3 -7 -18 -0 -17 -13 -10 -1 -0 -0 -4 -17 -24 -42 -22 -26 -48 -44 -52 -30 -0 -0 -0 -0 -0 -0
-0 -123 -57 -34 -39 -37 -41 -37 -41 -45 -21 -0 -0 -0 -0 -0 -0 -0 -0 -0 -1 -0 -0 -12 -10 -15 -20 -11 -9 -8 -18 -21 -16 -41 -33 -25 -7 -9 -18 -16 -11 -0 -0
-189 -160 -123 -90 -48 -37 -39 -48 -43 -44 -60 -31 -4 -0 -0 -0 -0 -0 -0 -0 -0 -3 -0 -0 -0 -20 -12 -11 -16 -16 -10 -37 -63 -55 -33 -22 -6 -29 -41 -25 -2 -7 -7
-186 -161 -163 -128 -84 -87 -48 -25 -25 -21 -33 -51 -62 -18 -1 -0 -0 -0 -3 -0 -0 -0 -0 -0 -5 -15 -37 -60 -61 -37 -16 -66 -75 -43 -48 -72 -49 -23 -33 -16 -5 -24 -0
-135 -0 -169 -154 -106 -90 -62 -26 -7 -7 -3 -11 -37 -110 -39 -25 -8 -8 -9 -0 -5 -2 -1 -1 -1 -21 -43 -58 -59 -61 -34 -92 -124 -73 -66 -82 -56 -53 -32 -33 -59 -26 -0
-0 -0 -0 -19 -154 -112 -80 -62 -38 -17 -15 -28 -25 -58 -57 -47 -44 -21 -14 -3 -1 -1 -4 -3 -7 -8 -17 -49 -60 -46 -52 -53 -88 -122 -137 -65 -73 -38 -26 -0 -13 -30 -12
-147 -144 -158 -134 -130 -54 -9 -107 -56 -40 -31 -30 -28 -42 -37 -40 -38 -25 -15 -2 -6 -10 -8 -9 -17 -21 -31 -61 -94 -67 -50 -45 -64 -76 -83 -111 -90 -54 -45 -25 -3 -0 -0
-157 -137 -126 -115 -109 -146 -121 -87 -52 -43 -45 -46 -89 -38 -52 -48 -40 -44 -34 -23 -29 -39 -41 -41 -48 -36 -48 -61 -63 -51 -52 -54 -61 -60 -71 -75 -91 -54 -38 -31 -33 -32 -16
-136 -127 -133 -115 -112 -112 -91 -74 -43 -42 -43 -41 -53 -42 -61 -48 -44 -46 -47 -54 -40 -49 -47 -50 -45 -39 -32 -26 -36 -53 -53 -60 -58 -57 -85 -71 -62 -60 -50 -36 -20 -18 -21
-160 -97 -109 -103 -106 -94 -82 -78 -52 -52 -49 -50 -51 -39 -36 -52 -43 -35 -33 -49 -41 -50 -42 -63 -42 -45 -42 -41 -62 -57 -39 -37 -37 -44 -47 -67 -46 -62 -52 -52 -42 -22 -7
-135 -134 -74 -77 -97 -91 -69 -80 -73 -54 -92 -65 -54 -52 -62 -68 -46 -7 -100 -76 -56 -37 -37 -32 -44 -62 -56 -64 -40 -39 -34 -36 -24 -26 -34 -67 -64 -39 -41 -50 -46 -35 -24
-159 -132 -84 -44 -62 -71 -78 -83 -71 -61 -64 -61 -81 -82 -91 -104 -104 -109 -0 -80 -57 -44 -36 -33 -44 -43 -31 -40 -40 -52 -44 -46 -38 -39 -47 -63 -88 -65 -48 -39 -51 -57 -59
-137 -138 -112 -67 -68 -62 -80 -95 -77 -70 -56 -79 -77 -76 -150 -138 -136 -0 -106 -68 -57 -39 -49 -68 -47 -54 -50 -55 -52 -50 -57 -57 -41 -31 -33 -50 -54 -70 -87 -30 -40 -57 -60
-214 -211 -0 -130 -61 -56 -62 -75 -71 -69 -97 -81 -104 -72 -96 -130 -92 -93 -57 -48 -43 -37 -40 -50 -48 -72 -51 -56 -47 -38 -46 -64 -69 -59 -43 -56 -58 -63 -82 -53 -57 -67 -72
-270 -74 -0 -120 -123 -69 -59 -46 -57 -51 -52 -68 -77 -48 -69 -103 -159 -96 -66 -52 -52 -45 -42 -52 -36 -29 -37 -28 -33 -35 -47 -58 -70 -81 -79 -74 -65 -51 -84 -88 -77 -71 -69
-0 -279 -183 -162 -231 -156 -51 -52 -39 -31 -47 -62 -82 -89 -117 -129 -144 -108 -66 -56 -56 -47 -52 -60 -37 -22 -30 -31 -16 -30 -37 -60 -134 -71 -99 -153 -98 -96 -75 -98 -117 -80 -88
-94 -117 -121 -119 -109 -90 -41 -33 -24 -25 -51 -63 -75 -104 -145 -119 -90 -189 -110 -71 -36 -76 -87 -85 -36 -34 -29 -33 -28 -16 -31 -56 -64 -81 -60 -86 -85 -99 -110 -79 -149 -94 -84
-0 -250 -160 -94 -63 -44 -35 -25 -23 -21 -17 -67 -71 -231 -42 -0 -150 -195 -134 -83 -82 -64 -55 -53 -50 -34 -21 -21 -31 -32 -34 -25 -31 -55 -78 -76 -103 -91 -173 -229 -183 -185 -118
-247 -240 -184 -69 -37 -39 -32 -36 -41 -28 -50 -133 -0 -196 -205 -191 -202 -190 -125 -120 -133 -31 -22 -36 -35 -29 -33 -38 -41 -39 -35 -37 -38 -34 -80 -63 -116 -97 -142 -210 -200 -179 -217
-246 -312 -217 -44 -29 -50 -37 -36 -26 -35 -50 -103 -85 -68 -42 -94 -38 -62 -93 -87 -46 -28 -31 -18 -32 -35 -31 -42 -22 -25 -18 -9 -27 -20 -50 -75 -92 -85 -104 -163 -187 -220 -237
Wind_Speed
27 27 27 28 28 27 28 28 28 28 26 26 26 22 22 23 24 27 26 27 28 28 27 21 23 22 24 25 26 31 30 30 30 27 32 31 31 31 29 29 28 28 28
29 28 28 27 28 27 27 27 27 27 27 27 27 23 22 23 28 29 30 28 27 26 22 17 20 22 29 32 33 32 30 29 29 32 31 31 30 30 29 29 28 28 29
29 28 28 27 27 27 27 27 26 26 26 27 27 29 27 28 29 28 28 28 29 27 21 21 20 26 32 33 34 30 32 32 30 31 30 30 30 29 29 28 29 29 29
29 29 29 28 28 27 26 26 26 25 25 26 25 23 26 27 27 25 25 27 30 30 27 25 24 33 30 33 33 33 33 32 28 31 29 29 29 29 29 29 29 29 28
29 29 29 29 27 27 26 25 25 25 24 24 25 25 24 25 25 25 23 25 25 25 24 26 29 32 31 31 31 30 30 29 25 25 27 28 28 28 28 28 28 28 27
28 28 27 27 27 27 26 26 25 25 24 24 23 23 24 25 25 25 23 22 21 18 20 25 28 29 27 30 28 28 25 24 19 27 26 27 27 27 27 27 27 26 26
27 26 26 26 26 26 26 25 24 24 24 23 24 24 25 24 24 24 24 25 24 23 25 26 27 26 25 26 24 25 26 23 23 25 24 25 25 25 25 25 26 26 26
26 26 25 24 24 24 24 24 23 23 23 23 24 24 24 24 24 24 24 24 25 25 25 26 25 24 23 23 23 24 22 15 23 25 24 23 24 24 23 24 24 24 24
23 24 23 24 24 23 23 22 22 22 22 22 23 23 24 24 24 24 24 24 24 24 24 23 21 22 23 23 23 22 10 10 23 23 22 22 22 22 22 22 23 22 22
22 22 23 23 23 22 21 21 20 20 20 21 22 23 23 23 24 24 23 24 24 23 23 22 22 22 22 22 20 18 10 17 23 22 21 21 21 20 20 21 21 21 21
19 21 22 22 22 22 20 20 19 19 18 20 22 22 22 23 23 23 23 23 23 23 23 22 22 22 22 22 21 20 20 20 21 18 17 18 19 19 18 19 20 20 20
20 21 21 22 22 20 19 20 19 19 19 20 22 22 21 23 23 23 22 22 23 22 22 22 22 21 22 21 20 20 20 20 19 19 17 18 19 18 19 18 18 18 19
19 19 20 21 21 19 19 18 18 18 19 20 22 22 21 23 23 23 22 21 22 22 22 21 21 21 20 19 21 19 19 19 19 18 16 16 18 17 18 19 19 19 18
18 20 19 19 19 18 18 17 18 18 20 20 22 22 21 21 21 21 21 21 21 21 21 21 20 20 20 21 20 19 19 17 18 19 18 18 18 17 19 18 19 20 20
17 20 18 19 20 18 17 18 18 17 19 20 21 20 18 19 19 20 20 20 21 21 20 20 20 20 19 19 19 19 19 18 19 18 17 18 19 19 19 19 19 19 20
5 7 18 18 21 17 17 18 18 18 18 19 19 19 17 18 19 21 21 20 19 20 20 20 19 19 19 19 18 19 20 19 18 17 16 17 19 18 19 20 19 19 20
3 5 16 19 18 11 14 17 18 17 17 19 19 15 19 16 19 20 20 19 17 17 20 19 18 17 17 17 18 17 18 19 17 17 15 16 17 18 19 19 18 18 19
5 16 17 24 12 7 11 17 18 19 19 20 18 15 18 17 18 19 19 18 17 18 19 19 18 16 17 17 18 18 18 18 17 14 15 15 14 16 18 18 19 18 18
3 11 22 25 26 11 16 16 19 20 19 19 18 19 17 18 20 20 19 18 15 18 19 17 15 14 18 17 17 17 16 15 17 17 14 16 15 14 14 15 19 20 19
1 2 27 27 25 14 21 21 21 21 20 19 19 21 20 20 20 20 20 17 17 18 19 19 16 14 16 17 17 19 16 15 15 14 15 13 13 15 13 15 17 19 20
21 12 19 26 30 9 5 24 23 21 20 19 18 17 20 19 21 21 21 20 19 18 18 18 17 15 15 15 14 20 22 14 11 14 14 11 11 9 9 9 13 15 18
20 21 23 23 28 22 22 19 6 13 17 18 16 12 8 19 20 20 21 22 21 19 18 15 14 16 15 12 13 18 19 21 15 9 9 8 6 6 5 6 12 14 10
21 22 22 25 29 24 22 3 18 12 12 12 14 13 11 11 16 18 21 21 20 14 22 13 17 14 17 11 8 10 18 16 19 16 16 13 8 9 7 9 9 10 1
23 26 27 27 26 24 21 13 8 10 13 16 13 15 12 15 14 17 22 23 24 22 20 15 16 5 10 3 17 12 9 14 17 21 17 19 19 14 10 8 9 10 6
26 27 26 27 25 22 18 15 10 12 13 13 15 11 11 11 12 19 19 20 22 24 25 24 20 15 14 12 11 14 13 11 8 11 16 18 20 17 16 8 9 11 7
25 25 25 26 24 22 17 14 10 13 12 12 13 15 15 12 13 13 12 13 19 21 21 22 23 21 20 16 8 16 15 10 11 15 8 9 12 19 16 4 3 6 2
Wind_Direction
113 106 98 98 96 90 91 91 91 82 72 70 63 52 55 58 63 74 66 68 74 73 70 58 57 59 73 74 75 87 78 78 80 76 92 90 91 95 89 92 92 91 85
111 104 101 95 96 93 93 91 93 87 86 80 73 60 62 63 76 80 81 74 72 72 60 48 50 58 79 92 93 88 81 77 79 94 90 90 97 100 96 90 87 90 89
109 106 102 97 93 91 91 91 91 87 86 83 84 99 84 84 89 85 83 81 85 76 60 58 55 68 86 96 103 86 92 92 84 88 92 94 103 95 97 87 88 90 96
110 110 112 106 99 96 90 89 89 86 86 91 77 68 82 87 87 79 79 87 99 97 77 71 69 92 85 103 109 110 116 103 77 97 104 103 97 97 94 95 92 94 96
109 114 111 103 96 96 92 89 87 87 85 88 91 86 83 91 86 83 78 84 86 83 79 85 95 108 108 103 112 108 107 120 133 129 118 101 105 103 97 97 99 101 94
111 113 108 105 103 101 97 97 92 89 86 90 93 91 91 97 97 93 83 83 79 68 73 89 108 121 92 101 95 116 133 144 168 120 109 110 105 102 101 100 102 99 97
112 111 111 108 105 106 107 105 97 94 87 90 99 102 107 105 99 95 99 105 96 94 103 109 120 110 106 103 96 134 135 145 140 120 110 112 108 113 102 99 107 102 106
112 114 111 110 109 110 111 112 109 103 98 97 102 108 109 111 116 106 107 112 116 118 121 133 127 117 109 113 111 132 149 179 152 127 124 119 116 107 103 111 112 114 106
107 111 110 116 119 116 117 114 114 111 106 107 108 114 119 120 123 120 121 121 124 123 124 116 109 123 140 138 135 148 244 236 101 127 140 132 117 114 114 113 124 118 114
109 114 116 120 122 125 123 122 119 117 111 114 121 127 130 131 133 130 131 137 134 133 127 125 128 134 147 172 195 204 307 83 129 131 127 127 131 129 123 125 127 125 124
107 118 123 123 129 130 123 126 116 113 121 127 141 140 147 151 147 145 142 143 146 149 144 142 145 146 153 164 176 186 167 131 139 147 126 138 138 136 134 135 134 136 138
119 127 127 130 133 129 129 131 111 106 138 137 152 157 154 163 158 154 150 150 152 152 155 155 157 159 166 166 169 177 182 162 154 159 160 152 148 144 154 153 146 142 145
128 129 132 138 139 130 132 131 120 123 170 161 174 169 160 152 159 158 157 157 156 156 162 160 161 165 165 163 174 175 179 181 180 177 163 153 152 155 157 163 168 163 157
124 132 134 137 140 136 135 128 129 136 173 166 157 158 149 138 147 160 160 165 171 164 160 169 171 171 176 178 182 190 173 175 175 182 189 173 168 163 169 166 169 173 172
130 142 134 137 144 137 135 139 139 136 158 169 160 146 142 138 139 153 162 163 176 179 171 170 181 177 177 181 191 189 188 184 183 182 179 184 174 173 175 177 175 174 178
53 93 136 139 150 129 133 139 142 137 144 160 143 148 120 124 156 182 175 164 178 165 180 173 174 173 183 182 188 194 197 193 182 180 182 178 176 175 179 181 179 180 180
334 340 135 141 133 98 107 116 120 125 131 141 123 237 173 144 151 181 178 166 151 144 169 165 161 155 174 175 182 183 185 188 176 174 168 170 171 184 183 182 179 178 180
275 271 258 206 119 58 94 120 128 134 127 175 206 227 166 118 159 206 184 172 160 154 206 188 172 149 175 177 186 186 187 185 180 162 169 168 165 175 182 185 186 177 175
320 287 240 238 218 105 116 120 132 144 130 139 206 182 142 195 199 201 198 173 148 198 213 191 159 140 208 179 187 194 185 178 193 187 168 178 178 177 173 178 187 187 184
46 347 201 212 167 128 212 165 147 157 166 165 177 203 193 203 220 211 205 198 177 185 202 207 188 162 185 199 207 222 202 188 191 184 187 180 183 182 168 173 181 189 193
158 145 160 169 186 123 315 193 193 179 190 185 180 170 192 215 225 228 220 212 209 188 187 202 196 194 192 197 196 246 245 196 181 184 180 174 176 155 155 165 184 185 193
149 139 139 147 181 150 150 143 102 210 222 277 309 354 44 213 233 266 256 240 227 210 202 181 166 199 203 173 177 252 281 307 7 113 154 152 73 46 40 23 329 195 194
128 128 131 152 171 153 146 176 255 316 339 357 336 344 7 261 246 294 275 257 217 169 221 180 208 189 213 178 114 30 342 1 336 359 347 2 15 2 360 337 352 347 41
137 146 164 174 156 148 139 111 32 18 342 336 350 335 355 346 332 303 280 278 253 232 214 194 331 63 3 153 340 0 6 359 349 336 347 340 342 351 4 10 352 346 358
164 162 165 156 144 145 130 124 27 355 10 13 16 351 9 345 4 303 298 280 258 262 271 285 315 339 345 355 356 348 353 359 8 357 343 343 336 346 349 11 352 355 2
162 160 170 154 147 139 124 122 39 8 27 19 10 347 324 344 354 329 6 333 304 313 310 310 307 319 329 341 5 338 342 345 347 344 358 217 347 339 349 57 107 26 90